CW7625 Weather Reports


time (UTC)temp
C
wind
direction
speed
KPH
gust
KPH
rain 1hr
cm
rain 24hr
cm
rain mn
cm
humidity
%
barometer
mb
20260903154108 30 64 6.4 11.3 0.00 0.00 0.00 73 1013.3
20260903153108 30 291 3.2 12.9 0.00 0.00 0.00 73 1013.4
20260903152108 30 355 3.2 11.3 0.00 0.00 0.00 74 1013.3
20260903151108 30 78 3.2 9.7 0.00 0.00 0.00 76 1013.3
20260903150108 29 65 3.2 12.9 0.00 0.00 0.00 77 1013.3
20260903145108 28 228 4.8 11.3 0.00 0.00 0.00 79 1013.4
20260903144108 28 223 6.4 12.9 0.00 0.00 0.00 80 1013.4
20260903143108 28 46 3.2 11.3 0.00 0.00 0.00 79 1013.4
20260903142108 27 94 1.6 16.1 0.00 0.00 0.00 82 1013.5
20260903140108 27 194 9.7 12.9 0.00 0.00 0.00 84 1013.7
20260903135108 27 120 0.0 11.3 0.00 0.00 0.00 86 1013.7
20260903134108 26 60 6.4 11.3 0.00 0.00 0.00 88 1013.8
20260903133108 26 109 4.8 6.4 0.00 0.00 0.00 90 1013.7
20260903132108 25 76 3.2 6.4 0.00 0.00 0.00 90 1013.7
20260903131108 24 80 1.6 4.8 0.00 0.00 0.00 91 1013.7
20260903130108 24 59 3.2 4.8 0.00 0.00 0.00 92 1013.7
20260903125108 23 26 3.2 4.8 0.00 0.00 0.00 93 1013.7
20260903123108 22 18 0.0 0.0 0.00 0.00 0.00 93 1013.6
20260903120108 22 18 0.0 0.0 0.00 0.00 0.00 92 1013.5
20260903115108 22 18 0.0 0.0 0.00 0.00 0.00 92 1013.6
20260903114108 22 18 0.0 0.0 0.00 0.00 0.00 92 1013.4
20260903113108 22 18 0.0 0.0 0.00 0.00 0.00 91 1013.3
20260903112108 22 18 0.0 0.0 0.00 0.00 0.00 92 1013.3
20260903111108 22 18 0.0 0.0 0.00 0.00 0.00 91 1013.1
20260903110108 22 18 0.0 0.0 0.00 0.00 0.00 92 1013.0
20260903104108 22 18 0.0 0.0 0.00 0.00 0.00 92 1013.0
20260903103108 22 18 0.0 0.0 0.00 0.00 0.00 91 1012.8
20260903102108 22 18 0.0 0.0 0.00 0.00 0.00 91 1012.8
20260903101108 22 18 0.0 0.0 0.00 0.00 0.00 91 1012.9
20260903100108 22 18 0.0 0.0 0.00 0.00 0.00 91 1012.8
20260903095108 22 18 0.0 0.0 0.00 0.00 0.00 91 1012.8
20260903094109 22 18 0.0 0.0 0.00 0.00 0.00 91 1012.7
20260903091108 22 18 0.0 0.0 0.00 0.00 0.00 91 1012.9
20260903090108 22 18 0.0 0.0 0.00 0.00 0.00 90 1012.8
20260903084108 23 18 0.0 0.0 0.00 0.00 0.00 91 1012.9
20260903082108 23 18 0.0 0.0 0.00 0.00 0.00 90 1012.8
20260903081109 23 18 0.0 0.0 0.00 0.00 0.00 90 1012.6
20260903080108 23 18 0.0 0.0 0.00 0.00 0.00 90 1012.6
20260903075109 23 18 0.0 1.6 0.00 0.00 0.00 90 1012.5
20260903074108 23 18 0.0 0.0 0.00 0.00 0.00 90 1012.4
20260903073108 23 18 0.0 0.0 0.00 0.00 0.00 90 1012.4
20260903072108 23 18 0.0 0.0 0.00 0.00 0.00 89 1012.4
20260903071108 23 18 0.0 1.6 0.00 0.00 0.00 89 1012.5
20260903070108 23 18 0.0 1.6 0.00 0.00 0.00 89 1012.5
20260903065109 23 18 0.0 0.0 0.00 0.00 0.00 89 1012.4
20260903063108 23 18 0.0 0.0 0.00 0.00 0.00 88 1012.6
20260903062108 23 18 0.0 0.0 0.00 0.00 0.00 88 1012.6
20260903054109 24 18 0.0 0.0 0.00 0.00 0.00 86 1012.6
20260903053109 24 18 0.0 1.6 0.00 0.00 0.00 86 1012.6
20260903045108 25 18 0.0 0.0 0.00 0.00 0.00 84 1012.6
20260903044109 25 18 0.0 0.0 0.00 0.00 0.00 82 1012.5
20260903042109 26 18 0.0 1.6 0.00 0.00 0.00 80 1012.5
20260903041109 26 18 0.0 3.2 0.00 0.00 0.00 80 1012.4
20260903040108 26 18 0.0 0.0 0.00 0.00 0.00 79 1012.6
20260903035108 27 18 0.0 0.0 0.00 0.00 0.00 78 1012.7
20260903034108 27 18 0.0 0.0 0.00 0.00 0.00 77 1012.6
20260903032108 28 18 0.0 4.8 0.00 0.00 0.00 74 1012.5
20260903031109 28 17 0.0 3.2 0.00 0.00 0.00 73 1012.5
20260903030109 28 22 1.6 4.8 0.00 0.00 0.00 73 1012.6
20260903025108 28 21 1.6 4.8 0.00 0.00 0.00 72 1012.5
20260903024109 28 12 0.0 6.4 0.00 0.00 0.00 72 1012.5
20260903022108 28 136 3.2 4.8 0.00 0.00 0.00 71 1012.2
20260903021109 29 136 0.0 3.2 0.00 0.00 0.00 70 1012.1
20260903020111 30 136 1.6 4.8 0.00 0.00 0.00 68 1012.0
20260903014109 30 49 3.2 8.0 0.00 0.00 0.00 66 1011.6
20260903013109 30 44 1.6 6.4 0.00 0.00 0.00 65 1011.6
20260903012109 30 89 1.6 6.4 0.00 0.00 0.00 64 1011.4
20260903011109 31 75 1.6 8.0 0.00 0.00 0.00 63 1011.6
20260903010109 31 191 1.6 6.4 0.00 0.00 0.00 62 1011.6
20260903003109 32 74 4.8 11.3 0.00 0.00 0.00 61 1011.5
20260903002109 32 71 0.0 6.4 0.00 0.00 0.00 60 1011.4
20260903000109 32 36 4.8 12.9 0.00 0.00 0.00 60 1011.2
20260902235109 32 48 6.4 11.3 0.00 0.00 0.00 60 1011.1
20260902234109 33 271 3.2 20.9 0.00 0.00 0.00 59 1011.1
20260902233109 33 234 4.8 16.1 0.00 0.00 0.00 58 1011.1
20260902232108 33 27 4.8 19.3 0.00 0.00 0.00 58 1011.1
20260902231109 33 24 3.2 19.3 0.00 0.00 0.00 59 1011.0
20260902230109 33 263 3.2 20.9 0.00 0.00 0.00 59 1010.9
20260902225109 34 60 8.0 16.1 0.00 0.00 0.00 55 1010.8
20260902223109 35 238 4.8 17.7 0.00 0.00 0.00 54 1010.7
20260902222109 35 95 3.2 16.1 0.00 0.00 0.00 54 1010.7
20260902221109 35 50 14.5 20.9 0.00 0.00 0.00 54 1010.7
20260902220109 35 59 4.8 17.7 0.00 0.00 0.00 53 1010.8
20260902215109 35 78 16.1 19.3 0.00 0.00 0.00 52 1010.8
20260902213109 35 42 6.4 22.5 0.00 0.00 0.00 52 1011.0
20260902212109 35 121 4.8 12.9 0.00 0.00 0.00 53 1011.1
20260902211109 35 50 8.0 14.5 0.00 0.00 0.00 52 1011.4
20260902205109 36 180 3.2 19.3 0.00 0.00 0.00 53 1011.6
20260902204109 36 85 3.2 19.3 0.00 0.00 0.00 52 1011.7
20260902203109 35 213 3.2 25.7 0.00 0.00 0.00 51 1011.8
20260902202109 35 53 9.7 22.5 0.00 0.00 0.00 51 1011.9
20260902201109 35 57 9.7 14.5 0.00 0.00 0.00 53 1012.1
20260902200109 35 88 4.8 14.5 0.00 0.00 0.00 50 1012.1
20260902194109 35 62 4.8 19.3 0.00 0.00 0.00 54 1012.4
20260902192109 35 41 9.7 24.1 0.00 0.00 0.00 54 1012.6
20260902191109 34 106 1.6 16.1 0.00 0.00 0.00 55 1012.8
20260902190109 34 325 4.8 12.9 0.00 0.00 0.00 56 1012.8
20260902185109 34 82 8.0 14.5 0.00 0.00 0.00 56 1012.9
20260902184109 34 47 9.7 17.7 0.00 0.00 0.00 56 1013.1
20260902183109 33 50 4.8 17.7 0.00 0.00 0.00 58 1013.3
20260902181109 33 235 6.4 12.9 0.00 0.00 0.00 61 1013.7
20260902180109 33 211 6.4 16.1 0.00 0.00 0.00 59 1013.9
20260902175109 33 130 8.0 12.9 0.00 0.00 0.00 59 1014.0
20260902174109 33 95 4.8 19.3 0.00 0.00 0.00 60 1014.3
20260902172109 33 110 3.2 16.1 0.00 0.00 0.00 59 1014.6
20260902170109 33 50 6.4 22.5 0.00 0.00 0.00 60 1014.9
20260902165109 32 71 6.4 16.1 0.00 0.00 0.00 60 1014.9
20260902164109 33 39 11.3 14.5 0.00 0.00 0.00 60 1015.1
20260902162109 32 61 9.7 14.5 0.00 0.00 0.00 62 1015.1
20260902160109 32 71 3.2 16.1 0.00 0.00 0.00 63 1015.2
20260902155109 31 244 1.6 17.7 0.00 0.00 0.00 65 1015.1